Time,TemperatureF,DewpointF,PressureIn,WindDirection,WindDirectionDegrees,WindSpeedMPH,WindSpeedGustMPH,Humidity,HourlyPrecipIn,Conditions,Clouds,dailyrainin,SoftwareType,DateUTC
2013-05-29 00:22:00,39.0,-99.9,-100.00,North,-999,-999.0,-999.0,-999,0.01,,,0.10,,2013-05-29 06:22:00,
2013-05-29 00:32:00,39.0,-99.9,-100.00,North,-999,-999.0,-999.0,-999,0.01,,,0.10,,2013-05-29 06:32:00,
2013-05-29 00:42:00,39.0,-99.9,-100.00,North,-999,-999.0,-999.0,-999,0.01,,,0.10,,2013-05-29 06:42:00,
2013-05-29 01:22:00,39.0,-99.9,-100.00,North,-999,-999.0,-999.0,-999,0.02,,,0.12,,2013-05-29 07:22:00,
2013-05-29 01:35:00,39.0,-99.9,-100.00,North,-999,-999.0,-999.0,-999,0.02,,,0.12,,2013-05-29 07:35:00,
2013-05-29 01:42:00,39.0,-99.9,-100.00,North,-999,-999.0,-999.0,-999,0.02,,,0.12,,2013-05-29 07:42:00,
2013-05-29 02:22:00,39.0,-99.9,-100.00,North,-999,-999.0,-999.0,-999,0.00,,,0.12,,2013-05-29 08:22:00,
2013-05-29 02:32:00,39.0,-99.9,-100.00,North,-999,-999.0,-999.0,-999,0.00,,,0.12,,2013-05-29 08:32:00,
2013-05-29 02:42:00,39.0,-99.9,-100.00,North,-999,-999.0,-999.0,-999,0.00,,,0.12,,2013-05-29 08:42:00,
2013-05-29 03:22:00,39.0,-99.9,-100.00,North,-999,-999.0,-999.0,-999,-99.99,,,0.11,,2013-05-29 09:22:00,
2013-05-29 03:33:00,39.0,-99.9,-100.00,North,-999,-999.0,-999.0,-999,-99.99,,,0.11,,2013-05-29 09:33:00,
2013-05-29 03:42:00,39.0,-99.9,-100.00,North,-999,-999.0,-999.0,-999,-99.99,,,0.11,,2013-05-29 09:42:00,
2013-05-29 04:22:00,38.0,-99.9,-100.00,North,-999,-999.0,-999.0,-999,-99.99,,,0.10,,2013-05-29 10:22:00,
2013-05-29 04:33:00,38.0,-99.9,-100.00,North,-999,-999.0,-999.0,-999,-99.99,,,0.10,,2013-05-29 10:33:00,
2013-05-29 04:42:00,38.0,-99.9,-100.00,North,-999,-999.0,-999.0,-999,-99.99,,,0.10,,2013-05-29 10:42:00,
2013-05-29 05:22:00,38.0,-99.9,-100.00,North,-999,-999.0,-999.0,-999,0.01,,,0.11,,2013-05-29 11:22:00,
2013-05-29 05:32:00,38.0,-99.9,-100.00,North,-999,-999.0,-999.0,-999,0.01,,,0.11,,2013-05-29 11:32:00,
2013-05-29 05:42:00,38.0,-99.9,-100.00,North,-999,-999.0,-999.0,-999,0.01,,,0.11,,2013-05-29 11:42:00,
2013-05-29 06:22:00,38.0,-99.9,-100.00,North,-999,-999.0,-999.0,-999,0.01,,,0.12,,2013-05-29 12:22:00,
2013-05-29 06:32:00,38.0,-99.9,-100.00,North,-999,-999.0,-999.0,-999,0.01,,,0.12,,2013-05-29 12:32:00,
2013-05-29 06:42:00,38.0,-99.9,-100.00,North,-999,-999.0,-999.0,-999,0.01,,,0.12,,2013-05-29 12:42:00,
2013-05-29 07:22:00,38.0,-99.9,-100.00,North,-999,-999.0,-999.0,-999,0.00,,,0.12,,2013-05-29 13:22:00,
2013-05-29 07:32:00,38.0,-99.9,-100.00,North,-999,-999.0,-999.0,-999,0.00,,,0.12,,2013-05-29 13:32:00,
2013-05-29 07:42:00,38.0,-99.9,-100.00,North,-999,-999.0,-999.0,-999,0.00,,,0.12,,2013-05-29 13:42:00,
2013-05-29 08:22:00,38.0,-99.9,-100.00,North,-999,-999.0,-999.0,-999,0.02,,,0.14,,2013-05-29 14:22:00,
2013-05-29 08:32:00,38.0,-99.9,-100.00,North,-999,-999.0,-999.0,-999,0.02,,,0.14,,2013-05-29 14:32:00,
2013-05-29 08:42:00,38.0,-99.9,-100.00,North,-999,-999.0,-999.0,-999,0.02,,,0.14,,2013-05-29 14:42:00,
2013-05-29 10:22:00,41.0,-99.9,-100.00,North,-999,-999.0,-999.0,-999,-99.99,,,0.14,,2013-05-29 16:22:00,
2013-05-29 10:33:00,41.0,-99.9,-100.00,North,-999,-999.0,-999.0,-999,-99.99,,,0.14,,2013-05-29 16:33:00,
2013-05-29 10:42:00,41.0,-99.9,-100.00,North,-999,-999.0,-999.0,-999,-99.99,,,0.14,,2013-05-29 16:42:00,
2013-05-29 11:22:00,43.0,-99.9,-100.00,North,-999,-999.0,-999.0,-999,-99.99,,,-99.99,,2013-05-29 17:22:00,
2013-05-29 11:33:00,43.0,-99.9,-100.00,North,-999,-999.0,-999.0,-999,-99.99,,,-99.99,,2013-05-29 17:33:00,
2013-05-29 11:43:00,43.0,-99.9,-100.00,North,-999,-999.0,-999.0,-999,-99.99,,,-99.99,,2013-05-29 17:43:00,
2013-05-29 12:22:00,44.0,-99.9,-100.00,North,-999,-999.0,-999.0,-999,0.03,,,-99.99,,2013-05-29 18:22:00,
2013-05-29 12:32:00,44.0,-99.9,-100.00,North,-999,-999.0,-999.0,-999,0.03,,,-99.99,,2013-05-29 18:32:00,
2013-05-29 12:42:00,44.0,-99.9,-100.00,North,-999,-999.0,-999.0,-999,0.03,,,-99.99,,2013-05-29 18:42:00,
2013-05-29 13:22:00,43.0,-99.9,-100.00,North,-999,-999.0,-999.0,-999,-99.99,,,0.15,,2013-05-29 19:22:00,
2013-05-29 13:32:00,43.0,-99.9,-100.00,North,-999,-999.0,-999.0,-999,-99.99,,,0.15,,2013-05-29 19:32:00,
2013-05-29 13:44:00,43.0,-99.9,-100.00,North,-999,-999.0,-999.0,-999,-99.99,,,0.15,,2013-05-29 19:44:00,
2013-05-29 14:23:00,45.0,-99.9,-100.00,North,-999,-999.0,-999.0,-999,0.01,,,0.16,,2013-05-29 20:23:00,
2013-05-29 14:33:00,45.0,-99.9,-100.00,North,-999,-999.0,-999.0,-999,0.01,,,0.16,,2013-05-29 20:33:00,
2013-05-29 14:42:00,45.0,-99.9,-100.00,North,-999,-999.0,-999.0,-999,0.01,,,0.16,,2013-05-29 20:42:00,
2013-05-29 16:23:00,43.0,-99.9,-100.00,North,-999,-999.0,-999.0,-999,-99.99,,,0.14,,2013-05-29 22:23:00,
2013-05-29 16:34:00,43.0,-99.9,-100.00,North,-999,-999.0,-999.0,-999,-99.99,,,0.14,,2013-05-29 22:34:00,
2013-05-29 16:43:00,43.0,-99.9,-100.00,North,-999,-999.0,-999.0,-999,-99.99,,,0.14,,2013-05-29 22:43:00,
2013-05-29 17:22:00,39.0,-99.9,-100.00,North,-999,-999.0,-999.0,-999,0.03,,,0.17,,2013-05-29 23:22:00,
2013-05-29 17:33:00,39.0,-99.9,-100.00,North,-999,-999.0,-999.0,-999,0.03,,,0.17,,2013-05-29 23:33:00,
2013-05-29 17:43:00,39.0,-99.9,-100.00,North,-999,-999.0,-999.0,-999,0.03,,,0.17,,2013-05-29 23:43:00,
2013-05-29 18:22:00,41.0,-99.9,-100.00,North,-999,-999.0,-999.0,-999,0.00,,,0.09,,2013-05-30 00:22:00,
2013-05-29 18:32:00,41.0,-99.9,-100.00,North,-999,-999.0,-999.0,-999,0.00,,,0.09,,2013-05-30 00:32:00,
2013-05-29 18:42:00,41.0,-99.9,-100.00,North,-999,-999.0,-999.0,-999,0.00,,,0.09,,2013-05-30 00:42:00,
2013-05-29 19:22:00,46.0,-99.9,-100.00,North,-999,-999.0,-999.0,-999,0.01,,,0.10,,2013-05-30 01:22:00,
2013-05-29 19:32:00,46.0,-99.9,-100.00,North,-999,-999.0,-999.0,-999,0.01,,,0.10,,2013-05-30 01:32:00,
2013-05-29 19:42:00,46.0,-99.9,-100.00,North,-999,-999.0,-999.0,-999,0.01,,,0.10,,2013-05-30 01:42:00,
2013-05-29 20:22:00,44.0,-99.9,-100.00,North,-999,-999.0,-999.0,-999,0.00,,,0.12,,2013-05-30 02:22:00,
2013-05-29 20:32:00,44.0,-99.9,-100.00,North,-999,-999.0,-999.0,-999,0.00,,,0.12,,2013-05-30 02:32:00,
2013-05-29 20:42:00,44.0,-99.9,-100.00,North,-999,-999.0,-999.0,-999,0.00,,,0.12,,2013-05-30 02:42:00,
2013-05-29 21:22:00,41.0,-99.9,-100.00,North,-999,-999.0,-999.0,-999,0.00,,,0.12,,2013-05-30 03:22:00,
2013-05-29 21:33:00,41.0,-99.9,-100.00,North,-999,-999.0,-999.0,-999,0.00,,,0.12,,2013-05-30 03:33:00,
2013-05-29 21:43:00,41.0,-99.9,-100.00,North,-999,-999.0,-999.0,-999,0.00,,,0.12,,2013-05-30 03:43:00,
2013-05-29 22:23:00,40.0,-99.9,-100.00,North,-999,-999.0,-999.0,-999,0.00,,,0.12,,2013-05-30 04:23:00,
2013-05-29 22:33:00,40.0,-99.9,-100.00,North,-999,-999.0,-999.0,-999,0.00,,,0.12,,2013-05-30 04:33:00,
2013-05-29 22:42:00,40.0,-99.9,-100.00,North,-999,-999.0,-999.0,-999,0.00,,,0.12,,2013-05-30 04:42:00,
2013-05-29 23:22:00,38.0,-99.9,-100.00,North,-999,-999.0,-999.0,-999,0.05,,,-99.99,,2013-05-30 05:22:00,
2013-05-29 23:32:00,38.0,-99.9,-100.00,North,-999,-999.0,-999.0,-999,0.05,,,-99.99,,2013-05-30 05:32:00,
2013-05-29 23:43:00,38.0,-99.9,-100.00,North,-999,-999.0,-999.0,-999,0.05,,,-99.99,,2013-05-30 05:43:00,